NOAA NWS Hourly Roundups by Site

Regional Weather Roundup for State College, PA

To Select Another Site Choose from List

Select Site:  

000
ASUS41 KCTP 230810
RWRCTP

REGIONAL WEATHER ROUNDUP
NATIONAL WEATHER SERVICE STATE COLLEGE PA
300 AM EST THU JAN 23 2020

Note: "fair" indicates few or no clouds below 12,000 feet with no
significant weather and/or obstructions to visibility.

* = STATION THAT DOES NOT REPORT PRECIPITATION /E.G. RAIN...SNOW...ETC/
    THUNDER OR FOG.

PAZ002>004-007>009-013>016-020>023-029>032-230900-
WESTERN PENNSYLVANIA

CITY           SKY/WX    TMP DP  RH WIND       PRES   REMARKS
ERIE           FAIR      31  13  47 S14       30.27F
MEADVILLE      FAIR      23  12  62 E3        30.26S
FRANKLIN       FAIR      22  14  71 SE8       30.27F WCI  12
NEW CASTLE     FAIR      21  16  81 CALM      30.28F
BEAVER COUNTY  FAIR      29  15  55 E3        30.27
BUTLER         FAIR      20  17  88 NE3       30.28S
PITTSBURGH INT MOCLDY    22  15  75 CALM      30.26F
PITTSBURGH     FAIR      28  17  63 NE3       30.26S
INDIANA*       CLEAR     21  18  86 E3        30.32R
LATROBE        FAIR      19  18  93 CALM      30.28S
WASHINGTON CO* FAIR      18  15  88 CALM      30.29F
$$

PAZ004>006-010>012-017>019-024>028-033>037-041-042-045-046-049>053-230900-
CENTRAL PENNSYLVANIA

CITY           SKY/WX    TMP DP  RH WIND       PRES   REMARKS
BRADFORD       FAIR      13   6  74 SE5       30.26S WCI   5
ST MARYS       FAIR      18  12  79 CALM      30.31
DUBOIS         FAIR      21  10  62 E6        30.27R WCI  13
CLEARFIELD     FAIR      14  10  84 N6        30.31S WCI   5
JOHNSTOWN      FAIR      29   9  43 SW6       30.25S
SOMERSET       FAIR      28  10  47 S3        30.26S
ALTOONA        FAIR      22  13  68 CALM      30.32S
STATE COLLEGE  FAIR      17  13  84 CALM      30.35S
REEDSVILLE     FAIR      16  14  93 CALM      30.37
WELLSBORO      FAIR      18  12  79 SW7       30.29F WCI   8
WILLIAMSPORT   FAIR      16  12  84 N3        30.41R
SELINSGROVE    FAIR      15  13  91 CALM      30.41F
FT INDIANTOWN  FAIR      15  12  88 CALM      30.40S
CAPITAL CITY   FAIR      22  15  75 CALM      30.41F
HARRISBURG     FAIR      21  16  81 CALM      30.41S
YORK           FAIR      15  11  83 CALM      30.40S
$$

PAZ038>040-043-044-047-048-054-055-060>062-067>071-230900-
EASTERN PENNSYLVANIA

CITY           SKY/WX    TMP DP  RH WIND       PRES   REMARKS
TOWANDA        SUNNY     18  16  93 CALM      30.38F
SCRANTON       FAIR      20  13  74 E3        30.36S
MOUNT POCONO   FAIR      21  11  65 NW5       30.29F WCI  15
HAZLETON       NOT AVBL
LEHIGHTON      NOT AVBL
ALLENTOWN      FAIR      19  14  81 W3        30.40S
QN CITY/ALNTWN FAIR      21  19  93 CALM      30.42R
QUAKERTOWN*    SUNNY     16  14  93 CALM      30.40R
PERKASIE*      FAIR      18  18 100 CALM      30.40R
DOYLESTOWN     FAIR      20  15  81 CALM      30.40R
READING        FAIR      20  17  88 CALM      30.41R
LANCASTER      FAIR      22  16  78 CALM      30.41S
COATESVILLE    FAIR      27  18  69 W5        30.40S
WEST CHESTER   FAIR      23  19  86 CALM      30.41S
POTTSTOWN      FAIR      17  14  88 CALM      30.43R
BLUE BELL      FAIR      20  18  91 CALM      30.42R
NORTH PHILA    FAIR      24  17  74 CALM      30.44R
PHILADELPHIA   FAIR      27  20  75 S3        30.43S
$$



 

View Past Reports for State College, PA.

Products Courtesy of NOAA-NWS
NWS Information Parsing Script by Ken True at Saratoga Weather - Script by SE Lincoln Weather.